Terminal Aerodrome Forecast
Issued by NWS Honolulu, HI

Home | Current Version | Previous Version | Text Only | Print | Product List | Glossary On
Versions: 1 2 3 4 5 6 7 8 9 10 11 12 13 14 15 16 17 18 19 20 21 22 23 24 25 26
000
FTPA31 PHFO 252249 AAB
TAFHNL
TAF AMD
PHNL 252249Z 2523/2624 07008G14KT P6SM FEW025 SCT050
     FM261200 34005KT P6SM FEW025
     FM262000 08011G16KT P6SM SCT025 SCT050=

USA.gov is the U.S. government's official web portal to all federal, state and local government web resources and services.